Location: Fort Hays State University
(38.8712°N, 99.3432°W)
Time: 06:09:13
(UTC-05:00)

Cosmos 2279 Rocket - Visible Passes

Search period start: 24 June 2018 00:00
Search period end: 04 July 2018 00:00
Orbit: 963 x 980 km, 82.9° (Epoch: 23 June)

Date Brightness Start Highest point End Pass type
(mag) Time Alt. Az. Time Alt. Az. Time Alt. Az.
24 Jun 6.9 22:40:02 10° W 22:42:25 12° WNW 22:44:48 10° NW visible
26 Jun 6.2 21:39:51 10° SW 21:45:04 28° WNW 21:50:19 10° NNW visible
27 Jun 6.8 22:06:11 10° WSW 22:09:45 16° WNW 22:13:20 10° NNW visible
30 Jun 6.8 21:32:45 10° WSW 21:37:06 20° WNW 21:41:29 10° NNW visible
01 Jul 7.4 22:01:06 10° WNW 22:01:55 10° WNW 22:02:44 10° WNW visible
02 Jul 7.4 05:24:45 10° NE 05:26:11 11° ENE 05:27:36 10° ENE visible
03 Jul 6.8 05:46:28 10° NNE 05:50:59 20° ENE 05:55:29 10° ESE visible
